Time,TemperatureF,DewpointF,PressureIn,WindDirection,WindDirectionDegrees,WindSpeedMPH,WindSpeedGustMPH,Humidity,HourlyPrecipIn,Conditions,Clouds,dailyrainin,SoftwareType,DateUTC
2013-11-29 00:01:00,33.6,29.0,30.27,West,260,0.0,0.0,83,0.00,,,0.00,Wunderground v.1.15,2013-11-28 23:01:00,
2013-11-29 00:21:00,33.5,28.9,30.26,West,260,0.0,0.0,83,0.00,,,0.00,Wunderground v.1.15,2013-11-28 23:21:00,
2013-11-29 00:41:00,33.3,28.7,30.25,West,260,0.0,0.0,83,0.00,,,0.00,Wunderground v.1.15,2013-11-28 23:41:00,
2013-11-29 00:51:00,33.1,28.5,30.25,NW,313,0.0,1.0,83,0.00,,,0.00,Wunderground v.1.15,2013-11-28 23:51:00,
2013-11-29 01:21:00,33.6,28.7,30.24,WSW,246,1.0,4.0,82,0.00,,,0.00,Wunderground v.1.15,2013-11-29 00:21:00,
2013-11-29 01:31:00,34.4,29.2,30.24,WSW,249,1.0,1.0,81,0.00,,,0.00,Wunderground v.1.15,2013-11-29 00:31:00,
2013-11-29 01:51:00,34.0,28.8,30.22,WSW,249,0.0,0.0,81,0.00,,,0.00,Wunderground v.1.15,2013-11-29 00:51:00,
2013-11-29 02:01:00,33.5,28.9,30.21,WSW,249,0.0,0.0,83,0.00,,,0.00,Wunderground v.1.15,2013-11-29 01:01:00,
2013-11-29 02:31:00,33.5,29.5,30.20,WSW,249,0.0,0.0,85,0.00,,,0.00,Wunderground v.1.15,2013-11-29 01:31:00,
2013-11-29 03:41:00,34.4,30.4,30.17,WSW,249,0.0,0.0,85,0.00,,,0.00,Wunderground v.1.15,2013-11-29 02:41:00,
2013-11-29 03:51:00,34.4,30.1,30.17,WSW,249,0.0,0.0,84,0.00,,,0.00,Wunderground v.1.15,2013-11-29 02:51:00,
2013-11-29 04:01:00,34.4,30.1,30.17,WSW,249,0.0,0.0,84,0.00,,,0.00,Wunderground v.1.15,2013-11-29 03:01:00,
2013-11-29 04:21:00,34.3,30.0,30.15,WSW,249,2.0,2.0,84,0.00,,,0.00,Wunderground v.1.15,2013-11-29 03:21:00,
2013-11-29 04:41:00,34.4,30.4,30.13,WSW,249,0.0,0.0,85,0.00,,,0.00,Wunderground v.1.15,2013-11-29 03:41:00,
2013-11-29 04:42:00,32.5,28.5,30.39,WSW,257,1.0,3.0,85,0.00,,,0.00,Wunderground v.1.15,2013-11-29 03:42:00,
2013-11-29 04:51:00,35.1,31.0,30.13,WSW,249,0.0,0.0,85,0.00,,,0.00,Wunderground v.1.15,2013-11-29 03:51:00,
2013-11-29 04:52:00,32.4,28.4,30.39,West,261,0.0,0.0,85,0.00,,,0.00,Wunderground v.1.15,2013-11-29 03:52:00,
2013-11-29 06:01:00,35.7,31.6,30.12,WSW,249,0.0,0.0,85,0.00,,,0.00,Wunderground v.1.15,2013-11-29 05:01:00,
2013-11-29 06:11:00,36.0,31.9,30.11,WSW,249,0.0,0.0,85,0.00,,,0.00,Wunderground v.1.15,2013-11-29 05:11:00,
2013-11-29 06:21:00,36.2,31.8,30.12,WSW,249,0.0,0.0,84,0.00,,,0.00,Wunderground v.1.15,2013-11-29 05:21:00,
2013-11-29 06:31:00,36.2,31.8,30.11,WSW,249,0.0,0.0,84,0.00,,,0.00,Wunderground v.1.15,2013-11-29 05:31:00,
2013-11-29 06:41:00,36.0,31.6,30.11,WSW,249,0.0,0.0,84,0.00,,,0.00,Wunderground v.1.15,2013-11-29 05:41:00,
2013-11-29 06:51:00,35.9,31.5,30.10,WSW,249,0.0,0.0,84,0.00,,,0.00,Wunderground v.1.15,2013-11-29 05:51:00,
2013-11-29 07:01:00,36.0,31.6,30.10,WSW,249,1.0,1.0,84,0.00,,,0.00,Wunderground v.1.15,2013-11-29 06:01:00,
2013-11-29 07:11:00,36.2,31.8,30.09,WSW,249,1.0,1.0,84,0.00,,,0.00,Wunderground v.1.15,2013-11-29 06:11:00,
2013-11-29 07:21:00,36.5,32.1,30.09,WSW,249,0.0,0.0,84,0.00,,,0.00,Wunderground v.1.15,2013-11-29 06:21:00,
2013-11-29 07:41:00,37.0,32.3,30.07,WSW,249,0.0,0.0,83,0.00,,,0.00,Wunderground v.1.15,2013-11-29 06:41:00,
2013-11-29 07:51:00,37.1,32.4,30.08,WSW,249,0.0,0.0,83,0.00,,,0.00,Wunderground v.1.15,2013-11-29 06:51:00,
2013-11-29 08:01:00,37.2,32.2,30.07,North,355,0.0,1.0,82,0.00,,,0.00,Wunderground v.1.15,2013-11-29 07:01:00,
2013-11-29 08:11:00,37.2,31.9,30.06,West,266,0.0,0.0,81,0.00,,,0.00,Wunderground v.1.15,2013-11-29 07:11:00,
2013-11-29 08:21:00,37.2,31.9,30.07,West,266,0.0,0.0,81,0.00,,,0.00,Wunderground v.1.15,2013-11-29 07:21:00,
2013-11-29 08:41:00,37.3,32.3,30.06,West,266,0.0,0.0,82,0.00,,,0.00,Wunderground v.1.15,2013-11-29 07:41:00,
2013-11-29 08:51:00,37.4,32.1,30.07,West,266,0.0,0.0,81,0.00,,,0.00,Wunderground v.1.15,2013-11-29 07:51:00,
2013-11-29 09:01:00,37.4,32.4,30.06,West,266,0.0,0.0,82,0.00,,,0.00,Wunderground v.1.15,2013-11-29 08:01:00,
2013-11-29 09:11:00,37.5,32.2,30.06,West,266,0.0,0.0,81,0.00,,,0.00,Wunderground v.1.15,2013-11-29 08:11:00,
2013-11-29 09:21:00,37.6,32.3,30.05,West,266,0.0,0.0,81,0.00,,,0.00,Wunderground v.1.15,2013-11-29 08:21:00,
2013-11-29 09:31:00,37.7,32.4,30.05,West,266,0.0,0.0,81,0.00,,,0.00,Wunderground v.1.15,2013-11-29 08:31:00,
2013-11-29 09:42:00,37.9,32.3,30.05,West,266,0.0,0.0,80,0.00,,,0.00,Wunderground v.1.15,2013-11-29 08:42:00,
2013-11-29 09:51:00,38.0,32.1,30.05,WNW,297,0.0,1.0,79,0.00,,,0.00,Wunderground v.1.15,2013-11-29 08:51:00,
2013-11-29 10:01:00,38.3,32.4,30.05,WNW,300,0.0,0.0,79,0.00,,,0.00,Wunderground v.1.15,2013-11-29 09:01:00,
2013-11-29 10:11:00,38.7,32.7,30.04,WSW,254,0.0,0.0,79,0.00,,,0.00,Wunderground v.1.15,2013-11-29 09:11:00,
2013-11-29 10:21:00,39.1,33.1,30.04,WSW,254,0.0,0.0,79,0.00,,,0.00,Wunderground v.1.15,2013-11-29 09:21:00,
2013-11-29 10:31:00,39.5,33.5,30.04,West,281,0.0,2.0,79,0.00,,,0.00,Wunderground v.1.15,2013-11-29 09:31:00,
2013-11-29 10:41:00,39.9,33.9,30.04,West,278,0.0,0.0,79,0.00,,,0.00,Wunderground v.1.15,2013-11-29 09:41:00,
2013-11-29 10:51:00,40.4,34.4,30.04,West,278,0.0,0.0,79,0.00,,,0.00,Wunderground v.1.15,2013-11-29 09:51:00,
2013-11-29 11:11:00,41.5,35.2,30.03,West,278,0.0,0.0,78,0.00,,,0.00,Wunderground v.1.15,2013-11-29 10:11:00,
2013-11-29 11:21:00,42.2,35.2,30.02,West,278,0.0,0.0,76,0.00,,,0.00,Wunderground v.1.15,2013-11-29 10:21:00,
2013-11-29 11:31:00,42.7,35.0,30.02,West,278,0.0,0.0,74,0.00,,,0.00,Wunderground v.1.15,2013-11-29 10:31:00,
2013-11-29 11:41:00,43.2,35.1,30.01,West,278,0.0,0.0,73,0.00,,,0.00,Wunderground v.1.15,2013-11-29 10:41:00,
2013-11-29 11:51:00,43.8,35.4,30.01,West,278,0.0,0.0,72,0.00,,,0.00,Wunderground v.1.15,2013-11-29 10:51:00,
2013-11-29 12:11:00,45.0,36.9,29.99,West,278,0.0,0.0,73,0.00,,,0.00,Wunderground v.1.15,2013-11-29 11:11:00,
2013-11-29 12:21:00,45.4,36.5,29.98,West,278,0.0,0.0,71,0.00,,,0.00,Wunderground v.1.15,2013-11-29 11:21:00,
2013-11-29 12:31:00,45.8,36.9,29.97,West,278,0.0,0.0,71,0.00,,,0.00,Wunderground v.1.15,2013-11-29 11:31:00,
2013-11-29 12:41:00,46.2,37.0,29.97,West,278,0.0,0.0,70,0.00,,,0.00,Wunderground v.1.15,2013-11-29 11:41:00,
2013-11-29 12:51:00,46.5,36.9,29.96,West,278,0.0,0.0,69,0.00,,,0.00,Wunderground v.1.15,2013-11-29 11:51:00,
2013-11-29 13:01:00,46.8,36.8,29.95,West,278,0.0,0.0,68,0.00,,,0.00,Wunderground v.1.15,2013-11-29 12:01:00,
2013-11-29 13:11:00,47.0,36.6,29.95,West,278,0.0,0.0,67,0.00,,,0.00,Wunderground v.1.15,2013-11-29 12:11:00,
2013-11-29 13:31:00,47.2,36.0,29.94,West,278,0.0,0.0,65,0.00,,,0.00,Wunderground v.1.15,2013-11-29 12:31:00,
2013-11-29 13:41:00,47.3,36.1,29.94,WNW,288,0.0,0.0,65,0.00,,,0.00,Wunderground v.1.15,2013-11-29 12:41:00,
2013-11-29 13:51:00,47.7,34.9,29.94,ENE,65,0.0,0.0,61,0.00,,,0.00,Wunderground v.1.15,2013-11-29 12:51:00,
2013-11-29 14:01:00,48.1,36.1,29.94,ENE,68,0.0,0.0,63,0.00,,,0.00,Wunderground v.1.15,2013-11-29 13:01:00,
2013-11-29 14:11:00,48.3,36.7,29.94,ENE,67,1.0,1.0,64,0.00,,,0.00,Wunderground v.1.15,2013-11-29 13:11:00,
2013-11-29 14:21:00,48.5,35.7,29.93,ENE,75,2.0,2.0,61,0.00,,,0.00,Wunderground v.1.15,2013-11-29 13:21:00,
2013-11-29 14:41:00,48.7,35.0,29.93,NE,52,1.0,1.0,59,0.00,,,0.00,Wunderground v.1.15,2013-11-29 13:41:00,
2013-11-29 14:51:00,48.4,34.7,29.93,East,94,2.0,3.0,59,0.00,,,0.00,Wunderground v.1.15,2013-11-29 13:51:00,
2013-11-29 15:01:00,48.2,35.4,29.93,East,87,1.0,1.0,61,0.00,,,0.00,Wunderground v.1.15,2013-11-29 14:01:00,
2013-11-29 15:11:00,48.2,36.2,29.93,East,87,0.0,0.0,63,0.00,,,0.00,Wunderground v.1.15,2013-11-29 14:11:00,
2013-11-29 15:21:00,48.1,36.9,29.94,East,87,0.0,0.0,65,0.00,,,0.00,Wunderground v.1.15,2013-11-29 14:21:00,
2013-11-29 15:31:00,47.7,36.9,29.94,East,87,0.0,0.0,66,0.00,,,0.00,Wunderground v.1.15,2013-11-29 14:31:00,
2013-11-29 15:41:00,47.6,38.3,29.95,East,87,0.0,0.0,70,0.00,,,0.00,Wunderground v.1.15,2013-11-29 14:41:00,
2013-11-29 15:51:00,46.5,38.3,29.95,East,91,3.0,3.0,73,0.00,,,0.00,Wunderground v.1.15,2013-11-29 14:51:00,
2013-11-29 16:01:00,45.5,38.7,29.95,East,80,1.0,1.0,77,0.00,,,0.00,Wunderground v.1.15,2013-11-29 15:01:00,
2013-11-29 16:21:00,44.9,39.4,29.94,East,97,0.0,0.0,81,0.00,,,0.00,Wunderground v.1.15,2013-11-29 15:21:00,
2013-11-29 16:31:00,44.6,39.8,29.94,East,97,0.0,0.0,83,0.00,,,0.00,Wunderground v.1.15,2013-11-29 15:31:00,
2013-11-29 16:41:00,44.3,39.5,29.93,East,97,0.0,0.0,83,0.00,,,0.00,Wunderground v.1.15,2013-11-29 15:41:00,
2013-11-29 16:51:00,43.9,39.4,29.94,East,97,0.0,0.0,84,0.00,,,0.00,Wunderground v.1.15,2013-11-29 15:51:00,
2013-11-29 17:01:00,43.5,39.0,29.94,East,97,0.0,0.0,84,0.00,,,0.00,Wunderground v.1.15,2013-11-29 16:01:00,
2013-11-29 17:11:00,43.2,38.7,29.94,East,97,0.0,1.0,84,0.00,,,0.00,Wunderground v.1.15,2013-11-29 16:11:00,
2013-11-29 17:21:00,42.9,38.1,29.94,East,96,0.0,1.0,83,0.00,,,0.00,Wunderground v.1.15,2013-11-29 16:21:00,
2013-11-29 17:51:00,45.0,33.5,29.94,East,86,5.0,5.0,64,0.00,,,0.00,Wunderground v.1.15,2013-11-29 16:51:00,
2013-11-29 18:01:00,45.4,33.1,29.94,East,88,4.0,6.0,62,0.00,,,0.00,Wunderground v.1.15,2013-11-29 17:01:00,
2013-11-29 18:11:00,45.5,32.8,29.93,West,276,4.0,4.0,61,0.00,,,0.00,Wunderground v.1.15,2013-11-29 17:11:00,
2013-11-29 18:21:00,45.5,32.4,29.93,WSW,254,3.0,3.0,60,0.00,,,0.00,Wunderground v.1.15,2013-11-29 17:21:00,
2013-11-29 18:31:00,45.4,31.9,29.94,East,101,3.0,3.0,59,0.00,,,0.00,Wunderground v.1.15,2013-11-29 17:31:00,
2013-11-29 18:41:00,45.4,31.0,29.94,ESE,106,3.0,3.0,57,0.00,,,0.00,Wunderground v.1.15,2013-11-29 17:41:00,
2013-11-29 18:51:00,45.5,30.3,29.94,SSW,205,3.0,3.0,55,0.00,,,0.00,Wunderground v.1.15,2013-11-29 17:51:00,
2013-11-29 19:01:00,45.5,30.3,29.95,WSW,250,3.0,3.0,55,0.00,,,0.00,Wunderground v.1.15,2013-11-29 18:01:00,
2013-11-29 19:11:00,45.3,30.1,29.95,NNW,327,2.0,2.0,55,0.00,,,0.00,Wunderground v.1.15,2013-11-29 18:11:00,
2013-11-29 19:31:00,45.0,29.3,29.95,East,89,3.0,4.0,54,0.00,,,0.00,Wunderground v.1.15,2013-11-29 18:31:00,
2013-11-29 19:41:00,44.9,29.2,29.95,East,90,4.0,4.0,54,0.00,,,0.00,Wunderground v.1.15,2013-11-29 18:41:00,
2013-11-29 19:51:00,44.7,29.5,29.96,ENE,76,3.0,3.0,55,0.00,,,0.00,Wunderground v.1.15,2013-11-29 18:51:00,
2013-11-29 20:01:00,44.5,29.3,29.96,East,87,3.0,3.0,55,0.00,,,0.00,Wunderground v.1.15,2013-11-29 19:01:00,
2013-11-29 20:51:00,42.9,29.5,29.99,East,84,1.0,1.0,59,0.00,,,0.00,Wunderground v.1.15,2013-11-29 19:51:00,
2013-11-29 21:01:00,42.7,29.4,29.98,South,186,2.0,2.0,59,0.00,,,0.00,Wunderground v.1.15,2013-11-29 20:01:00,
2013-11-29 21:11:00,42.2,29.3,29.99,NW,312,2.0,2.0,60,0.00,,,0.00,Wunderground v.1.15,2013-11-29 20:11:00,
2013-11-29 21:31:00,41.5,28.6,29.99,East,88,1.0,1.0,60,0.00,,,0.00,Wunderground v.1.15,2013-11-29 20:31:00,
2013-11-29 21:52:00,35.8,30.2,30.30,West,270,2.0,2.0,80,0.00,,,0.00,Wunderground v.1.15,2013-11-29 20:52:00,
2013-11-29 22:01:00,42.1,27.9,29.99,SE,131,1.0,2.0,57,0.00,,,0.00,Wunderground v.1.15,2013-11-29 21:01:00,
2013-11-29 22:11:00,42.2,28.5,29.99,WNW,283,2.0,2.0,58,0.00,,,0.00,Wunderground v.1.15,2013-11-29 21:11:00,
2013-11-29 22:31:00,42.8,28.2,29.99,East,86,1.0,3.0,56,0.00,,,0.00,Wunderground v.1.15,2013-11-29 21:31:00,
2013-11-29 22:41:00,43.3,28.2,30.00,East,83,2.0,2.0,55,0.00,,,0.00,Wunderground v.1.15,2013-11-29 21:41:00,
2013-11-29 23:01:00,44.6,28.5,30.00,West,279,2.0,2.0,53,0.00,,,0.00,Wunderground v.1.15,2013-11-29 22:01:00,
2013-11-29 23:21:00,43.8,29.1,30.00,East,98,0.0,0.0,56,0.00,,,0.00,Wunderground v.1.15,2013-11-29 22:21:00,
2013-11-29 23:22:00,33.7,29.1,30.28,WSW,240,1.0,1.0,83,0.00,,,0.00,Wunderground v.1.15,2013-11-29 22:22:00,
2013-11-29 23:41:00,42.6,30.1,30.01,ESE,107,0.0,0.0,61,0.00,,,0.00,Wunderground v.1.15,2013-11-29 22:41:00,
2013-11-29 23:51:00,41.8,29.7,30.01,ENE,70,0.0,0.0,62,0.00,,,0.00,Wunderground v.1.15,2013-11-29 22:51:00,